SCP
0 0 0 0 0 0 0 0 0 2 2 3 3 4 3 3 2 0 0 0 0 0 0 0 0 0 0 0 0 0 0 0
0 0 0 0 0 1 1 1 0 1 2 2 2 3 3 2 0 0 0 0 0 0 0 0 0 0 0 0 0 0 0 0
0 0 0 0 0 0 1 0 1 -0 0 2 3 3 2 0 0 0 0 0 0 0 0 0 0 0 0 0 0 0 0 0
0 0 0 0 0 1 1 -0 1 -2 1 1 3 3 0 0 0 0 0 0 0 0 0 0 0 0 0 0 0 0 0 0
0 0 -0 0 0 0 0 1 2 1 1 2 3 0 0 0 0 0 0 0 0 0 0 0 0 0 0 0 0 0 0 0
-0 0 0 0 0 0 0 0 1 0 0 0 0 0 0 0 0 0 0 0 0 0 0 0 0 0 0 0 0 0 0 0
-0 0 0 0 0 0 0 0 0 0 0 0 0 0 0 0 0 0 0 0 0 0 0 0 0 0 -0 0 0 0 0 0
-0 0 -0 0 0 0 0 0 0 0 0 0 0 0 0 0 0 0 0 0 0 0 0 0 0 0 -0 0 0 0 0 0
0 -0 -0 0 0 0 0 0 0 0 0 0 0 0 0 0 0 0 0 0 0 0 0 0 0 0 0 0 0 0 0 0
0 0 -0 -0 0 0 0 0 0 0 0 0 0 0 0 0 0 0 0 0 0 0 0 0 0 0 0 0 0 0 0 0
0 0 -0 0 0 0 0 0 0 -0 0 0 0 0 0 0 0 0 0 0 0 -0 -0 -0 -0 0 0 -0 0 0 0 0
0 0 0 0 0 0 0 0 0 0 0 0 0 0 0 0 0 0 0 0 0 0 -0 -0 -0 -0 0 0 0 0 0 0
0 -0 0 0 0 0 0 0 0 0 0 0 0 0 0 0 0 0 0 0 0 -0 -0 -0 -0 -0 0 0 0 0 0 0
0 -0 -0 0 0 0 0 0 0 0 0 0 0 0 0 0 0 0 -0 -0 -0 -0 -0 -0 -0 -0 -0 -0 0 0 0 0
0 0 -0 0 0 0 0 0 0 0 0 0 0 0 0 0 0 0 -0 -0 -0 -0 -0 -0 -0 -0 -0 -0 0 0 0 0
0 0 -0 -0 0 0 0 0 0 0 0 0 0 0 0 -0 -0 -0 -0 -0 -0 -0 -0 -0 -0 -0 0 0 0 0 0 0
-0 0 0 0 0 0 0 0 0 0 0 0 0 0 -0 -0 -0 0 -0 -0 -0 -0 -0 -0 0 0 0 0 0 0 0 0
0 0 0 0 0 0 0 0 0 0 0 -0 -0 -0 -0 -0 0 0 0 -0 -0 -0 0 0 0 0 0 0 0 0 0 0
0 0 0 0 0 0 0 0 0 0 0 0 0 0 -0 0 0 -0 -0 -0 -0 -0 0 0 0 0 0 0 0 0 0 0
0 0 0 0 0 0 0 0 0 0 -0 -0 0 0 0 0 0 0 -0 -0 -0 0 0 0 0 0 0 0 0 0 -0 -0
Wind_Speed_500mb
50 46 53 47 39 31 31 41 59 56 78 93 103 106 109 110 109 113 110 103 111 97 90 80 68 61 51 44 38 31 22 16
49 56 54 38 29 34 29 49 72 51 84 97 102 107 108 114 109 118 105 96 93 92 83 73 66 60 55 48 38 29 22 18
54 58 54 49 50 42 33 50 79 80 80 102 109 105 105 114 110 116 95 105 97 88 76 68 68 61 53 46 37 29 24 22
65 57 50 50 47 48 42 49 64 87 87 101 103 104 112 117 124 121 115 106 88 73 76 73 69 59 50 38 31 31 30 26
48 48 49 52 53 47 36 26 32 63 82 87 98 122 127 127 124 112 101 92 85 90 88 78 66 58 45 38 34 31 28 28
65 46 49 41 43 16 11 22 44 50 65 84 92 134 146 139 123 117 105 83 96 94 85 75 65 55 46 40 33 32 35 35
52 38 10 13 5 4 34 26 49 63 78 74 99 122 138 133 113 91 92 105 101 91 81 74 68 57 44 41 36 40 41 40
27 2 6 14 14 12 36 42 49 53 118 99 80 119 134 142 121 101 115 102 96 89 80 67 60 62 51 45 38 40 43 43
6 12 15 26 18 53 84 94 104 86 121 103 121 120 100 125 137 115 108 100 94 88 78 68 65 62 55 48 42 41 42 46
19 23 23 32 41 77 86 82 85 80 122 117 127 106 105 110 114 113 104 99 91 86 81 75 64 56 51 45 45 45 44 42
35 42 39 31 27 84 112 103 131 94 102 109 113 115 117 112 109 108 107 100 94 87 79 75 69 60 50 41 46 46 42 39
47 60 67 58 53 81 108 119 126 125 92 101 111 110 105 101 102 102 98 91 87 83 80 78 70 59 50 46 42 40 41 35
66 72 76 77 69 77 90 104 115 108 100 102 104 105 104 105 100 94 88 82 74 73 71 68 67 63 55 46 40 37 32 28
74 79 82 87 84 84 82 93 104 106 106 102 99 97 94 94 93 89 70 63 61 63 63 61 60 61 58 49 40 37 31 24
74 76 83 84 79 83 79 92 102 101 106 103 99 98 98 100 98 97 97 75 63 59 56 60 62 62 52 44 39 35 29 27
73 78 76 77 78 74 79 89 107 109 106 101 100 101 100 98 95 93 89 88 86 74 66 65 58 51 45 40 38 37 37 31
73 80 79 76 80 84 85 91 105 109 106 107 104 99 92 87 87 88 87 85 83 81 73 64 56 51 46 40 33 35 35 31
67 73 73 75 82 83 87 95 96 94 98 98 91 86 80 80 81 87 91 90 87 80 74 68 58 48 42 35 29 29 29 29
66 68 69 74 77 75 75 80 92 92 83 77 80 82 86 91 92 93 92 87 79 70 61 47 39 42 43 36 29 25 24 25
71 72 71 71 74 75 72 72 72 73 76 78 81 84 85 85 86 85 81 72 65 62 55 43 35 37 38 37 31 26 25 26
Wind_Direction_500mb
323 323 317 304 283 275 246 226 235 235 229 213 209 208 204 206 198 187 193 194 187 183 183 182 184 178 176 174 172 160 152 132
317 308 333 311 290 295 265 224 228 237 234 211 206 205 203 199 186 189 188 187 180 179 178 177 177 176 171 165 161 154 145 129
312 309 318 319 314 319 286 226 213 232 229 216 205 203 195 188 180 189 190 193 175 168 168 171 173 171 166 161 154 145 133 113
305 311 311 312 322 315 310 258 215 234 224 213 200 191 182 176 173 172 167 168 166 174 168 169 169 165 162 155 148 139 121 109
323 316 309 314 327 316 301 253 220 213 209 204 190 174 173 166 169 174 168 159 162 164 164 169 166 158 155 143 138 127 117 110
320 315 317 342 315 278 177 115 188 187 186 186 170 161 153 156 165 164 151 165 162 162 160 161 156 147 143 134 130 122 115 105
310 303 317 334 19 3 165 106 120 139 168 137 163 147 153 157 151 145 160 161 158 154 155 154 148 141 138 132 130 125 116 109
317 197 74 4 33 119 146 142 140 123 126 124 128 123 134 135 133 165 150 157 151 150 146 148 139 131 129 125 126 118 112 107
114 160 57 23 109 140 121 122 123 125 127 122 117 112 128 142 152 149 151 151 147 142 141 136 131 127 122 116 111 108 108 107
132 109 57 12 121 144 143 133 129 129 124 133 130 139 150 145 145 149 148 146 144 141 137 133 122 116 115 110 106 107 108 107
123 118 101 122 125 121 132 131 132 135 130 148 146 147 143 146 147 147 147 148 143 140 138 129 124 126 126 115 115 116 112 104
119 122 119 115 99 115 130 139 131 141 153 136 140 140 140 143 146 149 146 145 143 142 138 133 135 134 134 133 127 120 111 106
109 116 121 127 121 119 130 141 149 146 143 140 137 137 140 144 145 145 145 145 147 143 139 137 135 134 129 129 131 118 114 106
110 114 118 127 129 124 129 144 158 148 141 139 137 138 139 139 140 138 136 135 135 132 129 132 128 127 128 133 122 113 111 120
107 119 129 135 139 134 137 138 144 146 140 136 135 135 135 137 136 133 130 128 127 124 128 128 125 127 132 125 121 118 118 122
115 128 132 132 134 136 137 136 136 135 135 135 136 137 136 135 135 135 135 135 132 126 124 125 128 128 126 130 130 126 119 105
117 119 123 131 129 130 135 135 130 131 137 139 137 136 137 137 139 140 136 130 128 129 130 130 131 131 128 121 121 113 106 96
114 111 120 129 129 133 135 134 133 135 135 134 132 131 135 136 136 135 133 132 132 135 136 136 139 137 127 123 118 109 102 91
113 119 125 126 124 128 129 129 130 130 132 134 135 138 138 137 138 138 136 136 136 133 129 130 131 129 124 122 129 124 103 87
120 119 121 123 127 130 135 133 129 129 132 134 134 134 135 136 135 134 133 133 131 128 126 125 127 117 122 126 121 107 88 74
Wind_Speed_850mb
50 46 53 47 39 31 31 41 59 56 78 93 103 106 109 110 109 113 110 103 111 97 90 80 68 61 51 44 38 31 22 16
49 56 54 38 29 34 29 49 72 51 84 97 102 107 108 114 109 118 105 96 93 92 83 73 66 60 55 48 38 29 22 18
54 58 54 49 50 42 33 50 79 80 80 102 109 105 105 114 110 116 95 105 97 88 76 68 68 61 53 46 37 29 24 22
65 57 50 50 47 48 42 49 64 87 87 101 103 104 112 117 124 121 115 106 88 73 76 73 69 59 50 38 31 31 30 26
48 48 49 52 53 47 36 26 32 63 82 87 98 122 127 127 124 112 101 92 85 90 88 78 66 58 45 38 34 31 28 28
65 46 49 41 43 16 11 22 44 50 65 84 92 134 146 139 123 117 105 83 96 94 85 75 65 55 46 40 33 32 35 35
52 38 10 13 5 4 34 26 49 63 78 74 99 122 138 133 113 91 92 105 101 91 81 74 68 57 44 41 36 40 41 40
27 2 6 14 14 12 36 42 49 53 118 99 80 119 134 142 121 101 115 102 96 89 80 67 60 62 51 45 38 40 43 43
6 12 15 26 18 53 84 94 104 86 121 103 121 120 100 125 137 115 108 100 94 88 78 68 65 62 55 48 42 41 42 46
19 23 23 32 41 77 86 82 85 80 122 117 127 106 105 110 114 113 104 99 91 86 81 75 64 56 51 45 45 45 44 42
35 42 39 31 27 84 112 103 131 94 102 109 113 115 117 112 109 108 107 100 94 87 79 75 69 60 50 41 46 46 42 39
47 60 67 58 53 81 108 119 126 125 92 101 111 110 105 101 102 102 98 91 87 83 80 78 70 59 50 46 42 40 41 35
66 72 76 77 69 77 90 104 115 108 100 102 104 105 104 105 100 94 88 82 74 73 71 68 67 63 55 46 40 37 32 28
74 79 82 87 84 84 82 93 104 106 106 102 99 97 94 94 93 89 70 63 61 63 63 61 60 61 58 49 40 37 31 24
74 76 83 84 79 83 79 92 102 101 106 103 99 98 98 100 98 97 97 75 63 59 56 60 62 62 52 44 39 35 29 27
73 78 76 77 78 74 79 89 107 109 106 101 100 101 100 98 95 93 89 88 86 74 66 65 58 51 45 40 38 37 37 31
73 80 79 76 80 84 85 91 105 109 106 107 104 99 92 87 87 88 87 85 83 81 73 64 56 51 46 40 33 35 35 31
67 73 73 75 82 83 87 95 96 94 98 98 91 86 80 80 81 87 91 90 87 80 74 68 58 48 42 35 29 29 29 29
66 68 69 74 77 75 75 80 92 92 83 77 80 82 86 91 92 93 92 87 79 70 61 47 39 42 43 36 29 25 24 25
71 72 71 71 74 75 72 72 72 73 76 78 81 84 85 85 86 85 81 72 65 62 55 43 35 37 38 37 31 26 25 26
Wind_Direction_850mb
323 323 317 304 283 275 246 226 235 235 229 213 209 208 204 206 198 187 193 194 187 183 183 182 184 178 176 174 172 160 152 132
317 308 333 311 290 295 265 224 228 237 234 211 206 205 203 199 186 189 188 187 180 179 178 177 177 176 171 165 161 154 145 129
312 309 318 319 314 319 286 226 213 232 229 216 205 203 195 188 180 189 190 193 175 168 168 171 173 171 166 161 154 145 133 113
305 311 311 312 322 315 310 258 215 234 224 213 200 191 182 176 173 172 167 168 166 174 168 169 169 165 162 155 148 139 121 109
323 316 309 314 327 316 301 253 220 213 209 204 190 174 173 166 169 174 168 159 162 164 164 169 166 158 155 143 138 127 117 110
320 315 317 342 315 278 177 115 188 187 186 186 170 161 153 156 165 164 151 165 162 162 160 161 156 147 143 134 130 122 115 105
310 303 317 334 19 3 165 106 120 139 168 137 163 147 153 157 151 145 160 161 158 154 155 154 148 141 138 132 130 125 116 109
317 197 74 4 33 119 146 142 140 123 126 124 128 123 134 135 133 165 150 157 151 150 146 148 139 131 129 125 126 118 112 107
114 160 57 23 109 140 121 122 123 125 127 122 117 112 128 142 152 149 151 151 147 142 141 136 131 127 122 116 111 108 108 107
132 109 57 12 121 144 143 133 129 129 124 133 130 139 150 145 145 149 148 146 144 141 137 133 122 116 115 110 106 107 108 107
123 118 101 122 125 121 132 131 132 135 130 148 146 147 143 146 147 147 147 148 143 140 138 129 124 126 126 115 115 116 112 104
119 122 119 115 99 115 130 139 131 141 153 136 140 140 140 143 146 149 146 145 143 142 138 133 135 134 134 133 127 120 111 106
109 116 121 127 121 119 130 141 149 146 143 140 137 137 140 144 145 145 145 145 147 143 139 137 135 134 129 129 131 118 114 106
110 114 118 127 129 124 129 144 158 148 141 139 137 138 139 139 140 138 136 135 135 132 129 132 128 127 128 133 122 113 111 120
107 119 129 135 139 134 137 138 144 146 140 136 135 135 135 137 136 133 130 128 127 124 128 128 125 127 132 125 121 118 118 122
115 128 132 132 134 136 137 136 136 135 135 135 136 137 136 135 135 135 135 135 132 126 124 125 128 128 126 130 130 126 119 105
117 119 123 131 129 130 135 135 130 131 137 139 137 136 137 137 139 140 136 130 128 129 130 130 131 131 128 121 121 113 106 96
114 111 120 129 129 133 135 134 133 135 135 134 132 131 135 136 136 135 133 132 132 135 136 136 139 137 127 123 118 109 102 91
113 119 125 126 124 128 129 129 130 130 132 134 135 138 138 137 138 138 136 136 136 133 129 130 131 129 124 122 129 124 103 87
120 119 121 123 127 130 135 133 129 129 132 134 134 134 135 136 135 134 133 133 131 128 126 125 127 117 122 126 121 107 88 74